(464076) = 2014 WF294

Discovered at Kitt Peak on 2005-08-28 by Spacewatch.

Orbit

Orbit type: Main Belt

Note: WebGL enabled browser required.

epoch2023-09-13.0
epoch JD2460200.5
perihelion date2022-09-03.33581
perihelion JD2459825.83581
argument of perihelion (°)182.10154
ascending node (°)168.11318
inclination (°)14.35739
eccentricity0.1303116
perihelion distance (AU)2.2838770
Tisserand w.r.t. Jupiter3.3
ΔV w.r.t. Earth (km/sec)10.5
semimajor axis (AU)2.6260864
mean anomaly (°)86.77258
mean daily motion (°/day)0.23160090
aphelion distance (AU)2.968
period (years)4.26
P-vector [x]0.98521567
P-vector [y]-0.15334319
P-vector [z]-0.07639340
Q-vector [x]0.16352759
Q-vector [y]0.97468277
Q-vector [z]0.15248679
absolute magnitude17.6
phase slope0.15
uncertainty0
referenceMPEC 2024-A74
observations used158
oppositions11
arc length (days)6706
first opposition used2005
last opposition used2024
residual rms (arc-secs)0.70
perturbers coarse indicatorM-v
perturbers precise indicator003Ek
first observation date used2005-08-28.0
last observation date used2024-01-07.0
computer nameMPCLINUX
Minimum Orbit Intersection Distances (in AU)
for orbit epoch: 2460200.5, reference: E2024-A74
Mercury1.90578
Venus1.5579
Earth1.2771
Mars0.89671
Jupiter2.45413
Saturn6.34533
Uranus15.4794
Neptune27.4693

Observations

161 total observations over interval: 2005 08 28.38785 – 2024 01 07.555166
These data are available for download (format description).

Date (UT) J2000 RA J2000 Dec Magn Location Ref
2005 08 28.38785 00 20 32.14 +00 21 58.7 20.9 V 691 – Steward Observatory, Kitt Peak-Spacewatch MPS 616040
2005 08 28.40855 00 20 31.69 +00 21 44.9 20.6 V 691 – Steward Observatory, Kitt Peak-Spacewatch MPS 616040
2005 08 28.42591 00 20 31.31 +00 21 34.2 20.8 V 691 – Steward Observatory, Kitt Peak-Spacewatch MPS 616040
2005 09 11.35435 00 13 56.25 -02 26 05.2 20.5 V 691 – Steward Observatory, Kitt Peak-Spacewatch MPS 616040
2005 09 11.37175 00 13 55.61 -02 26 18.4 20.6 V 691 – Steward Observatory, Kitt Peak-Spacewatch MPS 616040
2005 09 11.38923 00 13 54.96 -02 26 31.6 20.7 V 691 – Steward Observatory, Kitt Peak-Spacewatch MPS 616040
2008 04 05.36216 13 53 15.39 +01 34 37.4 21.5 V G96 – Mt. Lemmon Survey MPS 616040
2008 04 05.37060 13 53 14.92 +01 34 42.2 21.4 V G96 – Mt. Lemmon Survey MPS 616040
2008 04 05.37900 13 53 14.60 +01 34 46.9 22.2 V G96 – Mt. Lemmon Survey MPS 616040
2008 04 05.38743 13 53 14.28 +01 34 50.8 22.4 V G96 – Mt. Lemmon Survey MPS 616040
2009 06 17.37707 21 35 37.96 +00 32 35.4 22.4 V G96 – Mt. Lemmon Survey MPS 616040
2009 06 17.38549 21 35 38.18 +00 32 37.5 21.6 V G96 – Mt. Lemmon Survey MPS 616040
2009 06 17.39369 21 35 38.22 +00 32 38.6 21.8 V G96 – Mt. Lemmon Survey MPS 616040
2009 06 17.40207 21 35 38.50 +00 32 39.5 21.9 V G96 – Mt. Lemmon Survey MPS 616040
2014 10 02.54750 05 04 53.019 +05 43 09.02 21.7 w F51 – Pan-STARRS 1, Haleakala MPS 616040
2014 10 02.56218 05 04 53.333 +05 43 02.46 21.5 w F51 – Pan-STARRS 1, Haleakala MPS 616040
2014 10 02.59181 05 04 54.001 +05 42 49.16 21.7 w F51 – Pan-STARRS 1, Haleakala MPS 616040
2014 11 21.47143 04 50 35.253 -00 20 44.21 20.9 w F51 – Pan-STARRS 1, Haleakala MPS 548209
2014 11 21.48358 04 50 34.595 -00 20 47.75 20.9 w F51 – Pan-STARRS 1, Haleakala MPS 548209
2014 11 21.49571 04 50 33.940 -00 20 51.06 20.9 w F51 – Pan-STARRS 1, Haleakala MPS 548209
2014 11 23.41939 04 48 52.906 -00 29 21.99 21.0 w F51 – Pan-STARRS 1, Haleakala MPS 548209
2014 11 23.43073 04 48 52.260 -00 29 24.70 20.9 w F51 – Pan-STARRS 1, Haleakala MPS 548209
2014 11 23.44204 04 48 51.622 -00 29 27.59 20.9 w F51 – Pan-STARRS 1, Haleakala MPS 548209
2014 11 23.45334 04 48 51.030 -00 29 30.70 20.9 w F51 – Pan-STARRS 1, Haleakala MPS 548209
2014 11 27.47105 04 45 13.270 -00 44 36.79 21.0 w F51 – Pan-STARRS 1, Haleakala MPS 551867
2014 11 27.48357 04 45 12.576 -00 44 39.04 21.2 w F51 – Pan-STARRS 1, Haleakala MPS 551867
2014 11 27.49609 04 45 11.855 -00 44 41.56 21.1 w F51 – Pan-STARRS 1, Haleakala MPS 551867
2014 12 01.37605 04 41 37.454 -00 55 39.78 20.7 i F51 – Pan-STARRS 1, Haleakala MPS 553566
2014 12 01.40190 04 41 35.982 -00 55 42.99 20.5 i F51 – Pan-STARRS 1, Haleakala MPS 553566
2014 12 01.41487 04 41 35.233 -00 55 44.82 20.7 i F51 – Pan-STARRS 1, Haleakala MPS 553566
2015 01 15.23359 04 14 12.077 +01 07 33.27 21.9 w F51 – Pan-STARRS 1, Haleakala MPS 616040
2015 01 15.24504 04 14 11.994 +01 07 37.94 21.7 w F51 – Pan-STARRS 1, Haleakala MPS 616040
2015 01 15.25655 04 14 11.910 +01 07 42.24 21.8 w F51 – Pan-STARRS 1, Haleakala MPS 616040
2015 01 19.22541 04 14 03.107 +01 34 59.13 22.0 w F51 – Pan-STARRS 1, Haleakala MPS 616040
2015 01 19.23681 04 14 03.108 +01 35 03.95 21.5 w F51 – Pan-STARRS 1, Haleakala MPS 616040
2015 01 19.23747 04 14 03.132 +01 35 04.47 21.7 w F51 – Pan-STARRS 1, Haleakala MPS 616040
2015 01 19.24890 04 14 03.121 +01 35 09.14 21.9 w F51 – Pan-STARRS 1, Haleakala MPS 616040
2015 01 19.24955 04 14 03.104 +01 35 09.53 21.9 w F51 – Pan-STARRS 1, Haleakala MPS 616040
2015 01 19.26100 04 14 03.102 +01 35 14.46 21.6 w F51 – Pan-STARRS 1, Haleakala MPS 616040
2015 01 19.26166 04 14 03.094 +01 35 14.50 21.7 w F51 – Pan-STARRS 1, Haleakala MPS 616040
2016 02 05.48902 11 12 41.058 +01 11 04.31 22.3 w F51 – Pan-STARRS 1, Haleakala MPS 679279
2016 02 05.50081 11 12 40.665 +01 11 08.59 22.0 w F51 – Pan-STARRS 1, Haleakala MPS 679279
2016 02 05.51264 11 12 40.289 +01 11 13.39 22.4 w F51 – Pan-STARRS 1, Haleakala MPS 679279
2016 02 05.52453 11 12 39.898 +01 11 17.67 22.1 w F51 – Pan-STARRS 1, Haleakala MPS 679279
2016 03 04.34675 10 53 17.79 +05 00 11.0 22.0 V G96 – Mt. Lemmon Survey MPS 686800
2016 03 04.35133 10 53 17.62 +05 00 13.2 21.7 V G96 – Mt. Lemmon Survey MPS 686800
2016 03 04.35592 10 53 17.37 +05 00 16.1 21.3 V G96 – Mt. Lemmon Survey MPS 686800
2016 03 04.36050 10 53 17.11 +05 00 17.7 21.5 V G96 – Mt. Lemmon Survey MPS 686800
2017 05 30.49410 16 51 27.393 +00 25 29.82 21.3 w F51 – Pan-STARRS 1, Haleakala MPS 800613
2017 05 30.50639 16 51 26.718 +00 25 32.35 21.3 w F51 – Pan-STARRS 1, Haleakala MPS 800613
2017 05 30.51872 16 51 26.066 +00 25 34.61 21.0 w F51 – Pan-STARRS 1, Haleakala MPS 800613
2017 05 30.53111 16 51 25.414 +00 25 37.17 21.3 w F51 – Pan-STARRS 1, Haleakala MPS 800613
2017 06 23.36619 16 31 36.850 +00 42 35.60 21.2 w F51 – Pan-STARRS 1, Haleakala MPS 802430
2017 06 23.38014 16 31 36.219 +00 42 33.96 21.3 w F51 – Pan-STARRS 1, Haleakala MPS 802430
2017 06 23.39405 16 31 35.600 +00 42 32.40 21.3 w F51 – Pan-STARRS 1, Haleakala MPS 802430
2017 06 25.34338 16 30 14.330 +00 38 20.86 21.4 w F51 – Pan-STARRS 1, Haleakala MPS 803457
2017 06 25.35612 16 30 13.787 +00 38 18.99 21.5 w F51 – Pan-STARRS 1, Haleakala MPS 803457
2017 06 25.36886 16 30 13.244 +00 38 17.27 21.5 w F51 – Pan-STARRS 1, Haleakala MPS 803457
2017 06 25.38156 16 30 12.692 +00 38 15.34 21.5 w F51 – Pan-STARRS 1, Haleakala MPS 803457
2018 08 22.56564 02 35 41.222 +06 19 50.38 21.6 w F51 – Pan-STARRS 1, Haleakala MPS 912229
2018 08 22.57808 02 35 41.723 +06 19 46.23 21.7 w F51 – Pan-STARRS 1, Haleakala MPS 912229
2018 08 22.59054 02 35 42.240 +06 19 42.49 21.5 w F51 – Pan-STARRS 1, Haleakala MPS 912229
2018 08 22.60308 02 35 42.750 +06 19 38.52 22.0 w F51 – Pan-STARRS 1, Haleakala MPS 912229
2018 09 12.39894 02 45 05.04 +03 48 57.6 21.6 G G96 – Mt. Lemmon Survey MPS 918940
2018 09 12.40413 02 45 05.10 +03 48 54.5 20.9 G G96 – Mt. Lemmon Survey MPS 918940
2018 09 12.40933 02 45 05.14 +03 48 52.0 21.1 G G96 – Mt. Lemmon Survey MPS 918940
2018 09 12.41451 02 45 05.18 +03 48 48.9 21.5 G G96 – Mt. Lemmon Survey MPS 918940
2018 11 01.63657 02 22 07.21 -04 48 11.9 21.0 R D29 – Purple Mountain Observatory, XuYi Station MPS 937040
2018 11 01.65072 02 22 06.53 -04 48 18.4 20.8 R D29 – Purple Mountain Observatory, XuYi Station MPS 937040
2018 11 04.28648 02 20 01.93 -05 07 29.9 20.7 G G96 – Mt. Lemmon Survey MPS 937040
2018 11 04.29169 02 20 01.66 -05 07 32.2 20.8 G G96 – Mt. Lemmon Survey MPS 937040
2018 11 04.29688 02 20 01.41 -05 07 34.2 20.6 G G96 – Mt. Lemmon Survey MPS 937040
2018 11 04.30206 02 20 01.16 -05 07 36.5 21.7 G G96 – Mt. Lemmon Survey MPS 937040
2018 11 06.38782 02 18 24.573 -05 21 25.55 20.5 w F52 – Pan-STARRS 2, Haleakala MPS 937040
2018 11 06.40131 02 18 23.927 -05 21 30.76 20.4 w F52 – Pan-STARRS 2, Haleakala MPS 937040
2018 11 06.41484 02 18 23.274 -05 21 35.82 20.6 w F52 – Pan-STARRS 2, Haleakala MPS 937040
2018 11 06.42837 02 18 22.620 -05 21 41.00 20.6 w F52 – Pan-STARRS 2, Haleakala MPS 937040
2019 01 02.28812 02 08 40.995 -04 06 36.41 21.9 w F51 – Pan-STARRS 1, Haleakala MPS 966897
2019 01 02.30067 02 08 41.364 -04 06 31.08 21.8 w F51 – Pan-STARRS 1, Haleakala MPS 966897
2020 01 21.43558 09 44 19.189 +02 29 18.52 22.0 w F51 – Pan-STARRS 1, Haleakala MPS 1143668
2020 01 21.44685 09 44 18.736 +02 29 22.04 21.8 w F51 – Pan-STARRS 1, Haleakala MPS 1143668
2020 01 21.45817 09 44 18.253 +02 29 25.70 21.7 w F51 – Pan-STARRS 1, Haleakala MPS 1143668
2020 01 21.46954 09 44 17.769 +02 29 29.28 21.8 w F51 – Pan-STARRS 1, Haleakala MPS 1143668
2020 01 23.46970 09 42 55.473 +02 40 18.51 21.9 w F51 – Pan-STARRS 1, Haleakala MPS 1143668
2020 01 23.48208 09 42 54.942 +02 40 22.99 22.0 w F51 – Pan-STARRS 1, Haleakala MPS 1143668
2020 01 23.49445 09 42 54.379 +02 40 26.94 21.9 w F51 – Pan-STARRS 1, Haleakala MPS 1143668
2020 01 23.50686 09 42 53.846 +02 40 30.97 21.8 w F51 – Pan-STARRS 1, Haleakala MPS 1143668
2020 01 24.44608 09 42 13.957 +02 45 51.50 22.1 w F51 – Pan-STARRS 1, Haleakala MPS 1143668
2020 01 24.45952 09 42 13.364 +02 45 55.88 21.8 w F51 – Pan-STARRS 1, Haleakala MPS 1143668
2020 01 24.47300 09 42 12.770 +02 46 00.63 22.1 w F51 – Pan-STARRS 1, Haleakala MPS 1143668
2020 01 24.48651 09 42 12.158 +02 46 05.36 21.7 w F51 – Pan-STARRS 1, Haleakala MPS 1143668
2020 02 16.28297 09 23 44.23 +05 33 41.8 21.5 G G96 – Mt. Lemmon Survey MPS 1163744
2020 02 16.28859 09 23 43.95 +05 33 45.1   G96 – Mt. Lemmon Survey MPS 1163744
